Landsat 5 - Orbit

View from above orbital plane
View from above orbital plane
View from above satellite
View from above satellite

Ground track
Ground track

The orbit data is extracted from the following two-line orbital elements,

1 14780U 84021A   13143.44481377  .00002947  00000-0  32038-3 0  9750
2 14780 098.0956 208.6810 0093427 007.8897 352.3764 14.85746507554672
Epoch (UTC): 23 May 2013 10:40:31
Eccentricity: 0.0093427
inclination: 98.0956°
perigee height: 546 km
apogee height: 676 km
right ascension of ascending node: 208.6810°
argument of perigee: 7.8897°
revolutions per day: 14.85746507
mean anomaly at epoch: 352.3764°
orbit number at epoch: 55467

The dashed part of the orbit path shows where the satellite is in the earth's shadow,  

Developed and maintained by Chris Peat, Heavens-Above GmbH. Please read the updated FAQ before sending e-mail. Imprint. DLR